TimeMST,TemperatureF,Dew PointF,Humidity,Sea Level PressureIn,VisibilityMPH,Wind Direction,Wind SpeedMPH,Gust SpeedMPH,PrecipitationIn,Events,Conditions,WindDirDegrees,DateUTC
1:50 AM,71,47,32,29.95,2,South,2.2,,,,Scattered Clouds,180,2013-04-01 08:50:00
4:40 AM,68,46,34,29.97,2,South,4.5,,,,,180,2013-04-01 11:40:00
6:07 AM,57.2,35.6,44,29.95,10.0,South,3.5,-,N/A,,Clear,190,2013-04-01 13:07:00
6:44 AM,59.0,37.4,45,29.95,10.0,South,4.6,-,N/A,,Partly Cloudy,190,2013-04-01 13:44:00
7:40 AM,69,44,30,30.03,16,South,2.2,,,,Scattered Clouds,180,2013-04-01 14:40:00
7:42 AM,68.0,37.4,33,30.04,10.0,South,6.9,-,N/A,,Scattered Clouds,180,2013-04-01 14:42:00
8:40 AM,80.6,37.4,21,29.98,10.0,SSE,3.5,-,N/A,,Scattered Clouds,160,2013-04-01 15:40:00
9:52 AM,86.0,32.0,14,30.00,12.0,WNW,5.8,-,N/A,,Scattered Clouds,300,2013-04-01 16:52:00
10:40 AM,87.8,30.2,13,30.04,10.0,North,6.9,-,N/A,,Scattered Clouds,350,2013-04-01 17:40:00
10:50 AM,91,46,13,29.98,19,SW,4.5,,,,Clear,230,2013-04-01 17:50:00
11:40 AM,89.6,23.0,9,29.97,10.0,NNW,6.9,-,N/A,,Scattered Clouds,340,2013-04-01 18:40:00
12:43 PM,89.6,32.0,13,29.93,12.0,North,15.0,-,N/A,,Partly Cloudy,10,2013-04-01 19:43:00
1:46 PM,91.4,28.4,10,29.97,12.0,North,11.5,-,N/A,,Scattered Clouds,350,2013-04-01 20:46:00
1:50 PM,95,43,9,29.92,19,North,6.7,,,,,0,2013-04-01 20:50:00
2:46 PM,89.6,33.8,14,29.88,10.0,North,11.5,-,N/A,,Scattered Clouds,360,2013-04-01 21:46:00
4:02 PM,84.2,53.6,35,29.87,10.0,NW,13.8,-,N/A,,Partly Cloudy,320,2013-04-01 23:02:00
4:48 PM,82.4,51.8,35,29.99,10.0,NW,9.2,-,N/A,,Partly Cloudy,320,2013-04-01 23:48:00
4:50 PM,86,60,31,29.86,19,WNW,11.2,,,,,300,2013-04-01 23:50:00
5:54 PM,77.0,60.8,57,29.90,10.0,NNW,11.5,-,N/A,,Partly Cloudy,340,2013-04-02 00:54:00
6:50 PM,73.4,59.0,61,29.93,10.0,WNW,6.9,-,N/A,,Partly Cloudy,300,2013-04-02 01:50:00
7:41 PM,71.6,57.2,60,30.06,10.0,Calm,Calm,-,N/A,,Partly Cloudy,0,2013-04-02 02:41:00
7:50 PM,75,61,53,29.92,2,SSW,4.5,,,,,210,2013-04-02 02:50:00
8:43 PM,68.0,51.8,56,29.94,10.0,SSE,9.2,-,N/A,,Partly Cloudy,160,2013-04-02 03:43:00
9:47 PM,66.2,51.8,60,29.95,10.0,South,11.5,-,N/A,,Clear,180,2013-04-02 04:47:00
10:40 PM,64.4,51.8,64,30.09,10.0,South,11.5,-,N/A,,Clear,190,2013-04-02 05:40:00
10:50 PM,67,54,55,29.95,2,South,11.2,,,,,180,2013-04-02 05:50:00